GW4056 Weather Reports


Display with metric or nautical units.
time (UTC)temp
F
wind
direction
speed
MPH
gust
MPH
rain 1hr
in
rain 24hr
in
rain mn
in
humidity
%
barometer
mb
20260503214524 59 262 8.0 17.0 0.00 0.00 0.00 29 1011.7
20260503213008 59 333 8.0 14.0 0.00 0.00 0.00 29 1011.6
20260503211505 59 291 7.0 15.0 0.00 0.00 0.00 30 1011.6
20260503210024 59 257 4.0 19.0 0.00 0.00 0.00 31 1011.6
20260503204522 59 232 6.0 15.0 0.00 0.00 0.00 31 1011.6
20260503203022 58 241 9.0 24.0 0.00 0.00 0.00 30 1011.4
20260503201516 58 307 10.0 24.0 0.00 0.00 0.00 32 1011.6
20260503200014 58 280 8.0 14.0 0.00 0.00 0.00 31 1011.7
20260503194510 57 255 9.0 18.0 0.00 0.00 0.00 32 1011.8
20260503193011 57 309 10.0 18.0 0.00 0.00 0.00 33 1012.0
20260503191551 56 271 9.0 19.0 0.00 0.00 0.00 34 1012.1
20260503190031 56 273 5.0 16.0 0.00 0.00 0.00 37 1012.2
20260503184521 55 304 7.0 19.0 0.00 0.00 0.00 36 1012.3
20260503183017 55 232 9.0 20.0 0.00 0.00 0.00 37 1012.6
20260503181515 54 283 7.0 17.0 0.00 0.00 0.00 41 1012.6
20260503180014 53 330 10.0 20.0 0.00 0.00 0.00 39 1012.6
20260503174509 53 252 6.0 19.0 0.00 0.00 0.00 41 1012.7
20260503173027 53 281 5.0 14.0 0.00 0.00 0.00 39 1012.7
20260503171524 53 266 5.0 18.0 0.00 0.00 0.00 42 1012.7
20260503081522 47 350 4.0 11.0 0.00 0.00 0.00 48 1010.4
20260503071505 49 339 3.0 8.0 0.00 0.00 0.00 46 1010.3
20260503054510 50 348 2.0 6.0 0.00 0.00 0.00 46 1010.8
20260503053008 50 342 1.0 9.0 0.00 0.00 0.00 45 1010.7
20260503051504 51 273 2.0 6.0 0.00 0.00 0.00 47 1010.8
20260503050005 51 13 1.0 6.0 0.00 0.00 0.00 47 1011.0
20260503044505 51 302 0.0 3.0 0.00 0.00 0.00 48 1011.3
20260503043003 51 263 1.0 3.0 0.00 0.00 0.00 49 1011.5
20260503041506 51 278 1.0 2.0 0.00 0.00 0.00 49 1011.5
20260503040014 51 289 1.0 3.0 0.00 0.00 0.00 49 1011.3
20260503034507 51 273 1.0 2.0 0.00 0.00 0.00 48 1011.5
20260503033007 52 333 1.0 3.0 0.00 0.00 0.00 48 1011.2
20260503031505 52 288 1.0 3.0 0.00 0.00 0.00 48 1011.0
20260503030004 52 264 0.0 3.0 0.00 0.00 0.00 48 1011.3
20260503024504 52 272 0.0 0.0 0.00 0.00 0.00 50 1011.0
20260503023018 52 295 0.0 0.0 0.00 0.00 0.00 50 1011.2
20260503021519 52 295 0.0 1.0 0.00 0.00 0.00 48 1011.2
20260503020010 53 290 0.0 3.0 0.00 0.00 0.00 46 1011.3
20260503014509 53 283 2.0 4.0 0.00 0.00 0.00 46 1011.4
20260503013011 54 322 1.0 4.0 0.00 0.00 0.00 44 1011.2
20260503011506 54 266 2.0 5.0 0.00 0.00 0.00 44 1011.3
20260503010006 54 278 2.0 4.0 0.00 0.00 0.00 45 1011.1
20260503004533 54 240 1.0 4.0 0.00 0.00 0.00 46 1010.9
20260503003016 54 285 0.0 0.0 0.00 0.00 0.00 46 1010.9
20260503001518 56 274 0.0 3.0 0.00 0.00 0.00 42 1010.7
20260503000016 56 283 0.0 4.0 0.00 0.00 0.00 42 1010.6
20260502234509 57 295 0.0 4.0 0.00 0.00 0.00 41 1010.7
20260502233019 57 271 1.0 3.0 0.00 0.00 0.00 40 1010.8
20260502231505 58 288 0.0 4.0 0.00 0.00 0.00 39 1010.9
20260502230031 58 286 4.0 8.0 0.00 0.00 0.00 37 1010.8
20260502224522 58 260 2.0 9.0 0.00 0.00 0.00 37 1010.7
20260502223032 58 286 5.0 8.0 0.00 0.00 0.00 38 1010.6
20260502221516 58 288 5.0 10.0 0.00 0.00 0.00 39 1010.4
20260502220015 60 268 5.0 10.0 0.00 0.00 0.00 38 1010.5